Time,TemperatureF,DewpointF,PressureIn,WindDirection,WindDirectionDegrees,WindSpeedMPH,WindSpeedGustMPH,Humidity,HourlyPrecipIn,Conditions,Clouds,dailyrainin,SoftwareType,DateUTC
2013-07-27 00:08:00,61.7,55.1,29.89,WSW,253,3.0,3.0,79,0.00,,,0.00,Wunderground v.1.15,2013-07-27 05:08:00,
2013-07-27 00:13:00,61.5,54.9,29.89,NW,326,3.0,4.0,79,0.00,,,0.00,Wunderground v.1.15,2013-07-27 05:13:00,
2013-07-27 00:18:00,61.4,54.8,29.89,NE,54,3.0,7.0,79,0.00,,,0.00,Wunderground v.1.15,2013-07-27 05:18:00,
2013-07-27 00:23:00,61.2,54.3,29.89,NW,326,4.0,7.0,78,0.00,,,0.00,Wunderground v.1.15,2013-07-27 05:23:00,
2013-07-27 00:28:00,61.0,54.1,29.89,SSE,149,4.0,4.0,78,0.00,,,0.00,Wunderground v.1.15,2013-07-27 05:28:00,
2013-07-27 00:33:00,60.7,53.4,29.89,NW,316,4.0,4.0,77,0.00,,,0.00,Wunderground v.1.15,2013-07-27 05:33:00,
2013-07-27 00:38:00,60.3,53.4,29.90,WNW,302,4.0,4.0,78,0.00,,,0.00,Wunderground v.1.15,2013-07-27 05:38:00,
2013-07-27 00:43:00,60.0,53.1,29.90,NNE,25,4.0,4.0,78,0.00,,,0.00,Wunderground v.1.15,2013-07-27 05:43:00,
2013-07-27 00:53:00,59.5,53.0,29.90,North,4,4.0,8.0,79,0.00,,,0.00,Wunderground v.1.15,2013-07-27 05:53:00,
2013-07-27 00:58:00,59.3,52.8,29.90,North,356,4.0,5.0,79,0.00,,,0.00,Wunderground v.1.15,2013-07-27 05:58:00,
2013-07-27 01:08:00,58.6,52.4,29.90,NNE,18,3.0,3.0,80,0.00,,,0.00,Wunderground v.1.15,2013-07-27 06:08:00,
2013-07-27 01:13:00,58.2,52.1,29.90,NNW,335,3.0,4.0,80,0.00,,,0.00,Wunderground v.1.15,2013-07-27 06:13:00,
2013-07-27 01:18:00,57.9,52.1,29.90,WSW,257,3.0,3.0,81,0.00,,,0.00,Wunderground v.1.15,2013-07-27 06:18:00,
2013-07-27 01:23:00,57.7,51.9,29.90,North,11,3.0,3.0,81,0.00,,,0.00,Wunderground v.1.15,2013-07-27 06:23:00,
2013-07-27 01:28:00,57.5,51.7,29.90,NW,325,3.0,3.0,81,0.00,,,0.00,Wunderground v.1.15,2013-07-27 06:28:00,
2013-07-27 01:37:00,57.3,51.5,29.90,West,262,2.0,4.0,81,0.00,,,0.00,Wunderground v.1.15,2013-07-27 06:37:00,
2013-07-27 01:42:00,57.3,51.5,29.90,WNW,297,3.0,4.0,81,0.00,,,0.00,Wunderground v.1.15,2013-07-27 06:42:00,
2013-07-27 01:47:00,57.2,51.1,29.90,NNW,329,3.0,3.0,80,0.00,,,0.00,Wunderground v.1.15,2013-07-27 06:47:00,
2013-07-27 01:52:00,57.1,51.3,29.90,NNE,15,3.0,3.0,81,0.00,,,0.00,Wunderground v.1.15,2013-07-27 06:52:00,
2013-07-27 01:58:00,57.0,51.2,29.90,WNW,301,2.0,2.0,81,0.00,,,0.00,Wunderground v.1.15,2013-07-27 06:58:00,
2013-07-27 02:07:00,57.0,51.2,29.90,WNW,302,2.0,2.0,81,0.00,,,0.00,Wunderground v.1.15,2013-07-27 07:07:00,
2013-07-27 02:13:00,56.9,51.1,29.90,NW,310,2.0,2.0,81,0.00,,,0.00,Wunderground v.1.15,2013-07-27 07:13:00,
2013-07-27 02:18:00,56.6,51.2,29.91,NNW,339,1.0,4.0,82,0.00,,,0.00,Wunderground v.1.15,2013-07-27 07:18:00,
2013-07-27 02:27:00,56.3,50.9,29.91,NNE,25,2.0,2.0,82,0.00,,,0.00,Wunderground v.1.15,2013-07-27 07:27:00,
2013-07-27 02:32:00,56.1,50.7,29.91,NW,307,1.0,2.0,82,0.00,,,0.00,Wunderground v.1.15,2013-07-27 07:32:00,
2013-07-27 02:37:00,56.2,50.8,29.91,NW,316,1.0,2.0,82,0.00,,,0.00,Wunderground v.1.15,2013-07-27 07:37:00,
2013-07-27 02:47:00,56.2,50.1,29.91,NNE,23,3.0,3.0,80,0.00,,,0.00,Wunderground v.1.15,2013-07-27 07:47:00,
2013-07-27 02:52:00,55.9,49.5,29.91,WSW,257,3.0,3.0,79,0.00,,,0.00,Wunderground v.1.15,2013-07-27 07:52:00,
2013-07-27 02:58:00,55.6,49.2,29.91,North,352,2.0,3.0,79,0.00,,,0.00,Wunderground v.1.15,2013-07-27 07:58:00,
2013-07-27 03:07:00,55.2,48.5,29.92,WNW,284,3.0,3.0,78,0.00,,,0.00,Wunderground v.1.15,2013-07-27 08:07:00,
2013-07-27 03:12:00,55.1,48.4,29.91,WSW,252,3.0,3.0,78,0.00,,,0.00,Wunderground v.1.15,2013-07-27 08:12:00,
2013-07-27 03:22:00,54.8,48.4,29.92,NNE,27,3.0,4.0,79,0.00,,,0.00,Wunderground v.1.15,2013-07-27 08:22:00,
2013-07-27 03:27:00,54.6,48.6,29.92,NNE,30,3.0,4.0,80,0.00,,,0.00,Wunderground v.1.15,2013-07-27 08:27:00,
2013-07-27 03:32:00,54.5,48.5,29.92,North,352,3.0,4.0,80,0.00,,,0.00,Wunderground v.1.15,2013-07-27 08:32:00,
2013-07-27 03:37:00,54.4,48.4,29.92,NW,317,2.0,2.0,80,0.00,,,0.00,Wunderground v.1.15,2013-07-27 08:37:00,
2013-07-27 03:47:00,54.4,48.0,29.92,NE,47,3.0,4.0,79,0.00,,,0.00,Wunderground v.1.15,2013-07-27 08:47:00,
2013-07-27 03:57:00,54.1,48.1,29.92,WNW,292,3.0,3.0,80,0.00,,,0.00,Wunderground v.1.15,2013-07-27 08:57:00,
2013-07-27 04:07:00,53.8,47.8,29.92,North,359,3.0,5.0,80,0.00,,,0.00,Wunderground v.1.15,2013-07-27 09:07:00,
2013-07-27 04:12:00,53.6,47.6,29.92,NW,316,4.0,5.0,80,0.00,,,0.00,Wunderground v.1.15,2013-07-27 09:12:00,
2013-07-27 04:17:00,53.5,47.5,29.92,NW,326,3.0,3.0,80,0.00,,,0.00,Wunderground v.1.15,2013-07-27 09:17:00,
2013-07-27 04:27:00,53.2,47.8,29.93,NNW,347,3.0,3.0,82,0.00,,,0.00,Wunderground v.1.15,2013-07-27 09:27:00,
2013-07-27 04:37:00,53.1,48.1,29.93,North,8,2.0,4.0,83,0.00,,,0.00,Wunderground v.1.15,2013-07-27 09:37:00,
2013-07-27 04:42:00,53.1,48.1,29.93,WNW,296,2.0,4.0,83,0.00,,,0.00,Wunderground v.1.15,2013-07-27 09:42:00,
2013-07-27 04:47:00,53.1,48.1,29.93,NNW,335,3.0,3.0,83,0.00,,,0.00,Wunderground v.1.15,2013-07-27 09:47:00,
2013-07-27 04:52:00,53.1,48.1,29.93,WNW,287,3.0,4.0,83,0.00,,,0.00,Wunderground v.1.15,2013-07-27 09:52:00,
2013-07-27 04:57:00,53.1,48.1,29.93,NW,323,3.0,3.0,83,0.00,,,0.00,Wunderground v.1.15,2013-07-27 09:57:00,
2013-07-27 05:07:00,53.1,48.1,29.94,NNW,330,3.0,3.0,83,0.00,,,0.00,Wunderground v.1.15,2013-07-27 10:07:00,
2013-07-27 05:12:00,53.0,48.0,29.93,North,354,2.0,3.0,83,0.00,,,0.00,Wunderground v.1.15,2013-07-27 10:12:00,
2013-07-27 05:22:00,52.8,47.8,29.94,South,181,3.0,3.0,83,0.00,,,0.00,Wunderground v.1.15,2013-07-27 10:22:00,
2013-07-27 05:27:00,52.7,47.7,29.94,NNW,338,3.0,3.0,83,0.00,,,0.00,Wunderground v.1.15,2013-07-27 10:27:00,
2013-07-27 05:37:00,52.6,47.6,29.94,North,8,3.0,3.0,83,0.00,,,0.00,Wunderground v.1.15,2013-07-27 10:37:00,
2013-07-27 05:42:00,52.6,47.6,29.94,NW,309,2.0,3.0,83,0.00,,,0.00,Wunderground v.1.15,2013-07-27 10:42:00,
2013-07-27 05:47:00,52.6,47.6,29.94,ESE,117,2.0,3.0,83,0.00,,,0.00,Wunderground v.1.15,2013-07-27 10:47:00,
2013-07-27 05:52:00,52.6,47.3,29.94,NNW,342,3.0,5.0,82,0.00,,,0.00,Wunderground v.1.15,2013-07-27 10:52:00,
2013-07-27 06:02:00,52.5,47.2,29.94,NNE,15,3.0,4.0,82,0.00,,,0.00,Wunderground v.1.15,2013-07-27 11:02:00,
2013-07-27 06:12:00,52.2,46.9,29.94,WNW,296,3.0,3.0,82,0.00,,,0.00,Wunderground v.1.15,2013-07-27 11:12:00,
2013-07-27 06:17:00,52.1,46.8,29.94,NNE,18,2.0,4.0,82,0.00,,,0.00,Wunderground v.1.15,2013-07-27 11:17:00,
2013-07-27 06:26:00,51.9,46.6,29.94,NW,311,2.0,4.0,82,0.00,,,0.00,Wunderground v.1.15,2013-07-27 11:26:00,
2013-07-27 06:31:00,52.0,46.7,29.94,WNW,285,2.0,4.0,82,0.00,,,0.00,Wunderground v.1.15,2013-07-27 11:31:00,
2013-07-27 06:41:00,52.2,46.5,29.94,WNW,297,3.0,3.0,81,0.00,,,0.00,Wunderground v.1.15,2013-07-27 11:41:00,
2013-07-27 06:51:00,52.5,46.8,29.94,North,8,2.0,3.0,81,0.00,,,0.00,Wunderground v.1.15,2013-07-27 11:51:00,
2013-07-27 06:57:00,53.0,47.3,29.94,WNW,284,2.0,2.0,81,0.00,,,0.00,Wunderground v.1.15,2013-07-27 11:57:00,
2013-07-27 07:11:00,53.1,47.1,29.94,WNW,300,2.0,4.0,80,0.00,,,0.00,Wunderground v.1.15,2013-07-27 12:11:00,
2013-07-27 07:16:00,53.0,47.0,29.94,West,259,2.0,2.0,80,0.00,,,0.00,Wunderground v.1.15,2013-07-27 12:16:00,
2013-07-27 07:27:00,53.0,47.0,29.94,North,356,1.0,3.0,80,0.00,,,0.00,Wunderground v.1.15,2013-07-27 12:27:00,
2013-07-27 07:41:00,52.2,48.1,29.95,NNW,345,2.0,4.0,86,0.00,,,0.00,Wunderground v.1.15,2013-07-27 12:41:00,
2013-07-27 07:46:00,52.0,48.3,29.95,WSW,249,2.0,3.0,87,0.00,,,0.00,Wunderground v.1.15,2013-07-27 12:46:00,
2013-07-27 07:51:00,51.7,48.0,29.95,WSW,245,1.0,4.0,87,0.00,,,0.00,Wunderground v.1.15,2013-07-27 12:51:00,
2013-07-27 08:01:00,51.6,48.2,29.95,West,259,2.0,2.0,88,0.00,,,0.00,Wunderground v.1.15,2013-07-27 13:01:00,
2013-07-27 08:06:00,51.7,48.6,29.95,SW,226,2.0,2.0,89,0.00,,,0.00,Wunderground v.1.15,2013-07-27 13:06:00,
2013-07-27 08:11:00,51.8,48.1,29.95,WSW,238,1.0,7.0,87,0.00,,,0.00,Wunderground v.1.15,2013-07-27 13:11:00,
2013-07-27 08:21:00,51.7,46.7,29.95,West,271,3.0,4.0,83,0.00,,,0.00,Wunderground v.1.15,2013-07-27 13:21:00,
2013-07-27 08:26:00,51.7,46.7,29.95,WSW,245,2.0,2.0,83,0.00,,,0.00,Wunderground v.1.15,2013-07-27 13:26:00,
2013-07-27 08:31:00,52.3,47.3,29.95,SW,233,2.0,3.0,83,0.00,,,0.00,Wunderground v.1.15,2013-07-27 13:31:00,
2013-07-27 08:41:00,52.6,45.9,29.95,WSW,253,3.0,3.0,78,0.00,,,0.00,Wunderground v.1.15,2013-07-27 13:41:00,
2013-07-27 08:56:00,52.7,45.7,29.95,WNW,292,3.0,3.0,77,0.00,,,0.00,Wunderground v.1.15,2013-07-27 13:56:00,
2013-07-27 09:01:00,52.8,45.4,29.94,NNW,339,3.0,4.0,76,0.00,,,0.00,Wunderground v.1.15,2013-07-27 14:01:00,
2013-07-27 09:11:00,52.5,45.5,29.94,NW,314,3.0,3.0,77,0.00,,,0.00,Wunderground v.1.15,2013-07-27 14:11:00,
2013-07-27 09:16:00,52.3,45.6,29.94,NW,304,3.0,4.0,78,0.00,,,0.00,Wunderground v.1.15,2013-07-27 14:16:00,
2013-07-27 09:26:00,52.8,46.1,29.94,NNE,12,3.0,3.0,78,0.00,,,0.00,Wunderground v.1.15,2013-07-27 14:26:00,
2013-07-27 09:36:00,53.3,45.9,29.94,WSW,256,3.0,4.0,76,0.00,,,0.00,Wunderground v.1.15,2013-07-27 14:36:00,
2013-07-27 09:41:00,53.5,45.8,29.94,WNW,301,3.0,4.0,75,0.00,,,0.00,Wunderground v.1.15,2013-07-27 14:41:00,
2013-07-27 09:46:00,54.5,47.1,29.94,NW,307,3.0,3.0,76,0.00,,,0.00,Wunderground v.1.15,2013-07-27 14:46:00,
2013-07-27 09:51:00,55.1,46.2,29.94,NNW,333,3.0,4.0,72,0.00,,,0.00,Wunderground v.1.15,2013-07-27 14:51:00,
2013-07-27 09:56:00,55.2,46.7,29.94,West,264,4.0,5.0,73,0.00,,,0.00,Wunderground v.1.15,2013-07-27 14:56:00,
2013-07-27 10:02:00,54.6,45.8,29.94,NNE,25,4.0,5.0,72,0.00,,,0.00,Wunderground v.1.15,2013-07-27 15:02:00,
2013-07-27 10:07:00,54.7,46.2,29.94,WNW,292,3.0,3.0,73,0.00,,,0.00,Wunderground v.1.15,2013-07-27 15:07:00,
2013-07-27 10:12:00,55.4,46.2,29.93,WNW,302,3.0,3.0,71,0.00,,,0.00,Wunderground v.1.15,2013-07-27 15:12:00,
2013-07-27 10:17:00,56.4,46.4,29.93,NW,311,3.0,4.0,69,0.00,,,0.00,Wunderground v.1.15,2013-07-27 15:17:00,
2013-07-27 10:27:00,56.2,46.2,29.93,NW,323,4.0,4.0,69,0.00,,,0.00,Wunderground v.1.15,2013-07-27 15:27:00,
2013-07-27 10:32:00,56.2,45.4,29.93,WNW,293,4.0,4.0,67,0.00,,,0.00,Wunderground v.1.15,2013-07-27 15:32:00,
2013-07-27 10:37:00,55.8,45.8,29.93,WSW,246,4.0,4.0,69,0.00,,,0.00,Wunderground v.1.15,2013-07-27 15:37:00,
2013-07-27 10:42:00,55.4,46.2,29.93,North,359,3.0,4.0,71,0.00,,,0.00,Wunderground v.1.15,2013-07-27 15:42:00,
2013-07-27 10:47:00,54.9,46.0,29.93,West,264,3.0,3.0,72,0.00,,,0.00,Wunderground v.1.15,2013-07-27 15:47:00,
2013-07-27 10:52:00,55.0,46.1,29.93,WNW,288,3.0,3.0,72,0.00,,,0.00,Wunderground v.1.15,2013-07-27 15:52:00,
2013-07-27 10:57:00,55.2,46.0,29.93,NNE,12,3.0,3.0,71,0.00,,,0.00,Wunderground v.1.15,2013-07-27 15:57:00,
2013-07-27 11:07:00,56.3,46.3,29.93,North,6,3.0,3.0,69,0.00,,,0.00,Wunderground v.1.15,2013-07-27 16:07:00,
2013-07-27 11:17:00,56.2,46.9,29.93,West,259,3.0,3.0,71,0.00,,,0.00,Wunderground v.1.15,2013-07-27 16:17:00,
2013-07-27 11:22:00,56.0,46.4,29.93,SSW,210,3.0,4.0,70,0.00,,,0.00,Wunderground v.1.15,2013-07-27 16:22:00,
2013-07-27 11:27:00,55.8,46.5,29.93,WSW,240,3.0,3.0,71,0.00,,,0.00,Wunderground v.1.15,2013-07-27 16:27:00,
2013-07-27 11:37:00,55.9,46.3,29.93,WNW,300,3.0,3.0,70,0.00,,,0.00,Wunderground v.1.15,2013-07-27 16:37:00,
2013-07-27 11:42:00,55.8,46.5,29.93,West,277,3.0,3.0,71,0.00,,,0.00,Wunderground v.1.15,2013-07-27 16:42:00,
2013-07-27 11:51:00,55.7,46.4,29.93,West,262,3.0,3.0,71,0.00,,,0.00,Wunderground v.1.15,2013-07-27 16:51:00,
2013-07-27 11:57:00,55.8,46.5,29.93,North,349,3.0,3.0,71,0.00,,,0.00,Wunderground v.1.15,2013-07-27 16:57:00,
2013-07-27 12:06:00,56.4,47.1,29.93,SW,228,3.0,3.0,71,0.00,,,0.00,Wunderground v.1.15,2013-07-27 17:06:00,
2013-07-27 12:12:00,57.1,47.4,29.93,WSW,243,2.0,3.0,70,0.00,,,0.00,Wunderground v.1.15,2013-07-27 17:12:00,
2013-07-27 12:17:00,57.0,46.9,29.93,North,5,2.0,2.0,69,0.00,,,0.00,Wunderground v.1.15,2013-07-27 17:17:00,
2013-07-27 12:22:00,56.9,46.8,29.92,West,276,3.0,3.0,69,0.00,,,0.00,Wunderground v.1.15,2013-07-27 17:22:00,
2013-07-27 12:31:00,56.2,46.9,29.92,WSW,249,3.0,6.0,71,0.00,,,0.00,Wunderground v.1.15,2013-07-27 17:31:00,
2013-07-27 12:36:00,56.2,46.9,29.93,NW,325,3.0,3.0,71,0.00,,,0.00,Wunderground v.1.15,2013-07-27 17:36:00,
2013-07-27 12:41:00,56.2,46.9,29.92,West,270,2.0,3.0,71,0.00,,,0.00,Wunderground v.1.15,2013-07-27 17:41:00,
2013-07-27 12:46:00,56.2,46.9,29.92,WSW,243,2.0,3.0,71,0.00,,,0.00,Wunderground v.1.15,2013-07-27 17:46:00,
2013-07-27 12:52:00,57.0,47.3,29.92,WNW,286,2.0,3.0,70,0.00,,,0.00,Wunderground v.1.15,2013-07-27 17:52:00,
2013-07-27 13:01:00,58.1,48.4,29.92,West,262,3.0,5.0,70,0.00,,,0.00,Wunderground v.1.15,2013-07-27 18:01:00,
2013-07-27 13:16:00,57.6,47.5,29.92,West,264,3.0,3.0,69,0.00,,,0.00,Wunderground v.1.15,2013-07-27 18:16:00,
2013-07-27 13:21:00,57.2,47.1,29.92,West,273,3.0,3.0,69,0.00,,,0.00,Wunderground v.1.15,2013-07-27 18:21:00,
2013-07-27 13:31:00,57.3,47.6,29.92,SW,232,4.0,4.0,70,0.00,,,0.00,Wunderground v.1.15,2013-07-27 18:31:00,
2013-07-27 13:36:00,58.0,49.4,29.92,WSW,250,3.0,6.0,73,0.00,,,0.00,Wunderground v.1.15,2013-07-27 18:36:00,
2013-07-27 13:46:00,59.4,49.6,29.91,WSW,253,3.0,3.0,70,0.00,,,0.00,Wunderground v.1.15,2013-07-27 18:46:00,
2013-07-27 13:51:00,59.8,48.8,29.91,WSW,249,3.0,4.0,67,0.00,,,0.00,Wunderground v.1.15,2013-07-27 18:51:00,
2013-07-27 13:56:00,59.8,49.6,29.91,WNW,284,3.0,3.0,69,0.00,,,0.00,Wunderground v.1.15,2013-07-27 18:56:00,
2013-07-27 14:06:00,59.8,48.8,29.91,SSW,201,4.0,4.0,67,0.00,,,0.00,Wunderground v.1.15,2013-07-27 19:06:00,
2013-07-27 14:16:00,59.3,48.7,29.91,NW,318,3.0,3.0,68,0.00,,,0.00,Wunderground v.1.15,2013-07-27 19:16:00,
2013-07-27 14:21:00,59.7,48.7,29.91,SW,232,3.0,3.0,67,0.00,,,0.00,Wunderground v.1.15,2013-07-27 19:21:00,
2013-07-27 14:31:00,59.9,48.9,29.90,WSW,249,3.0,8.0,67,0.00,,,0.00,Wunderground v.1.15,2013-07-27 19:31:00,
2013-07-27 14:46:00,59.8,48.8,29.89,NW,325,2.0,2.0,67,0.00,,,0.00,Wunderground v.1.15,2013-07-27 19:46:00,
2013-07-27 14:51:00,60.3,48.9,29.89,WSW,253,3.0,3.0,66,0.00,,,0.00,Wunderground v.1.15,2013-07-27 19:51:00,
2013-07-27 15:00:00,61.0,49.1,29.89,West,274,3.0,3.0,65,0.00,,,0.00,Wunderground v.1.15,2013-07-27 20:00:00,
2013-07-27 15:10:00,61.0,48.7,29.89,West,271,3.0,5.0,64,0.00,,,0.00,Wunderground v.1.15,2013-07-27 20:10:00,
2013-07-27 15:15:00,60.9,49.1,29.89,WSW,248,3.0,5.0,65,0.00,,,0.00,Wunderground v.1.15,2013-07-27 20:15:00,
2013-07-27 15:20:00,60.4,49.0,29.89,SSW,198,3.0,3.0,66,0.00,,,0.00,Wunderground v.1.15,2013-07-27 20:20:00,
2013-07-27 15:30:00,59.6,48.6,29.89,West,266,4.0,6.0,67,0.00,,,0.00,Wunderground v.1.15,2013-07-27 20:30:00,
2013-07-27 15:35:00,59.4,49.2,29.89,WNW,300,4.0,6.0,69,0.00,,,0.00,Wunderground v.1.15,2013-07-27 20:35:00,
2013-07-27 15:40:00,59.5,49.3,29.89,West,277,3.0,3.0,69,0.00,,,0.00,Wunderground v.1.15,2013-07-27 20:40:00,
2013-07-27 15:45:00,59.9,49.7,29.88,SW,233,3.0,3.0,69,0.00,,,0.00,Wunderground v.1.15,2013-07-27 20:45:00,
2013-07-27 15:50:00,60.3,48.9,29.88,WSW,240,3.0,5.0,66,0.00,,,0.00,Wunderground v.1.15,2013-07-27 20:50:00,
2013-07-27 15:55:00,60.3,48.5,29.88,WNW,302,4.0,5.0,65,0.00,,,0.00,Wunderground v.1.15,2013-07-27 20:55:00,
2013-07-27 16:00:00,61.0,50.0,29.88,SW,231,4.0,4.0,67,0.00,,,0.00,Wunderground v.1.15,2013-07-27 21:00:00,
2013-07-27 16:10:00,61.3,49.0,29.88,West,280,4.0,5.0,64,0.00,,,0.00,Wunderground v.1.15,2013-07-27 21:10:00,
2013-07-27 16:15:00,61.2,48.5,29.88,SE,131,4.0,5.0,63,0.00,,,0.00,Wunderground v.1.15,2013-07-27 21:15:00,
2013-07-27 16:25:00,61.5,48.4,29.88,WNW,287,3.0,4.0,62,0.00,,,0.00,Wunderground v.1.15,2013-07-27 21:25:00,
2013-07-27 16:30:00,60.8,49.0,29.87,SW,217,3.0,3.0,65,0.00,,,0.00,Wunderground v.1.15,2013-07-27 21:30:00,
2013-07-27 16:35:00,60.4,49.0,29.87,West,277,3.0,3.0,66,0.00,,,0.00,Wunderground v.1.15,2013-07-27 21:35:00,
2013-07-27 16:45:00,59.3,49.1,29.88,WNW,302,3.0,6.0,69,0.00,,,0.00,Wunderground v.1.15,2013-07-27 21:45:00,
2013-07-27 16:50:00,59.0,49.2,29.87,WNW,288,3.0,3.0,70,0.00,,,0.00,Wunderground v.1.15,2013-07-27 21:50:00,
2013-07-27 16:55:00,58.8,49.4,29.87,West,276,2.0,3.0,71,0.00,,,0.00,Wunderground v.1.15,2013-07-27 21:55:00,
2013-07-27 17:00:00,58.7,49.3,29.88,West,274,3.0,3.0,71,0.00,,,0.00,Wunderground v.1.15,2013-07-27 22:00:00,
2013-07-27 17:10:00,58.8,49.4,29.87,West,262,4.0,4.0,71,0.00,,,0.00,Wunderground v.1.15,2013-07-27 22:10:00,
2013-07-27 17:15:00,58.9,48.7,29.87,WSW,238,4.0,5.0,69,0.00,,,0.00,Wunderground v.1.15,2013-07-27 22:15:00,
2013-07-27 17:20:00,58.9,49.1,29.87,WSW,249,4.0,6.0,70,0.00,,,0.00,Wunderground v.1.15,2013-07-27 22:20:00,
2013-07-27 17:25:00,59.1,49.7,29.87,WNW,283,3.0,6.0,71,0.00,,,0.00,Wunderground v.1.15,2013-07-27 22:25:00,
2013-07-27 17:30:00,59.1,49.3,29.87,WSW,240,3.0,3.0,70,0.00,,,0.00,Wunderground v.1.15,2013-07-27 22:30:00,
2013-07-27 17:35:00,59.1,49.3,29.87,WSW,240,3.0,6.0,70,0.00,,,0.00,Wunderground v.1.15,2013-07-27 22:35:00,
2013-07-27 17:45:00,59.4,49.2,29.86,WSW,245,4.0,4.0,69,0.00,,,0.00,Wunderground v.1.15,2013-07-27 22:45:00,
2013-07-27 17:50:00,59.5,48.9,29.86,West,269,4.0,4.0,68,0.00,,,0.00,Wunderground v.1.15,2013-07-27 22:50:00,
2013-07-27 18:00:00,59.9,50.5,29.86,WNW,288,2.0,2.0,71,0.00,,,0.00,Wunderground v.1.15,2013-07-27 23:00:00,
2013-07-27 18:10:00,61.0,50.0,29.85,SW,216,3.0,8.0,67,0.00,,,0.00,Wunderground v.1.15,2013-07-27 23:10:00,
2013-07-27 18:20:00,59.8,49.6,29.85,WSW,252,3.0,3.0,69,0.00,,,0.00,Wunderground v.1.15,2013-07-27 23:20:00,
2013-07-27 18:25:00,59.2,49.8,29.85,WSW,243,3.0,6.0,71,0.00,,,0.00,Wunderground v.1.15,2013-07-27 23:25:00,
2013-07-27 18:30:00,58.4,49.8,29.86,WNW,300,4.0,4.0,73,0.00,,,0.00,Wunderground v.1.15,2013-07-27 23:30:00,
2013-07-27 18:35:00,57.8,49.9,29.86,WSW,253,3.0,4.0,75,0.00,,,0.00,Wunderground v.1.15,2013-07-27 23:35:00,
2013-07-27 18:40:00,57.3,49.4,29.86,WSW,252,3.0,4.0,75,0.00,,,0.00,Wunderground v.1.15,2013-07-27 23:40:00,
2013-07-27 18:45:00,57.0,49.5,29.86,WSW,257,3.0,4.0,76,0.00,,,0.00,Wunderground v.1.15,2013-07-27 23:45:00,
2013-07-27 18:50:00,56.9,49.8,29.86,WSW,240,3.0,3.0,77,0.00,,,0.00,Wunderground v.1.15,2013-07-27 23:50:00,
2013-07-27 18:55:00,56.9,49.8,29.86,WSW,254,2.0,3.0,77,0.00,,,0.00,Wunderground v.1.15,2013-07-27 23:55:00,
2013-07-27 19:04:00,56.7,50.6,29.86,NW,308,2.0,3.0,80,0.00,,,0.00,Wunderground v.1.15,2013-07-28 00:04:00,
2013-07-27 19:09:00,56.5,50.4,29.86,NNW,340,1.0,3.0,80,0.00,,,0.00,Wunderground v.1.15,2013-07-28 00:09:00,
2013-07-27 19:15:00,56.2,50.1,29.86,WSW,256,2.0,3.0,80,0.00,,,0.00,Wunderground v.1.15,2013-07-28 00:15:00,
2013-07-27 19:20:00,56.1,50.0,29.86,NNW,330,3.0,3.0,80,0.00,,,0.00,Wunderground v.1.15,2013-07-28 00:20:00,
2013-07-27 19:25:00,56.0,49.9,29.86,WNW,297,2.0,3.0,80,0.00,,,0.00,Wunderground v.1.15,2013-07-28 00:25:00,
2013-07-27 19:30:00,55.8,50.1,29.86,WNW,301,2.0,3.0,81,0.00,,,0.00,Wunderground v.1.15,2013-07-28 00:30:00,
2013-07-27 19:35:00,55.7,50.0,29.86,WSW,250,2.0,3.0,81,0.00,,,0.00,Wunderground v.1.15,2013-07-28 00:35:00,
2013-07-27 19:40:00,55.6,49.5,29.86,WNW,294,2.0,2.0,80,0.00,,,0.00,Wunderground v.1.15,2013-07-28 00:40:00,
2013-07-27 19:45:00,55.6,49.5,29.86,WSW,240,2.0,2.0,80,0.00,,,0.00,Wunderground v.1.15,2013-07-28 00:45:00,
2013-07-27 19:54:00,55.0,49.6,29.86,West,268,3.0,4.0,82,0.00,,,0.00,Wunderground v.1.15,2013-07-28 00:54:00,
2013-07-27 20:00:00,54.4,49.7,29.86,WNW,296,3.0,3.0,84,0.00,,,0.00,Wunderground v.1.15,2013-07-28 01:00:00,
2013-07-27 20:09:00,53.7,49.3,29.86,WSW,243,2.0,2.0,85,0.00,,,0.00,Wunderground v.1.15,2013-07-28 01:09:00,
2013-07-27 20:14:00,53.6,49.2,29.86,WSW,250,2.0,2.0,85,0.00,,,0.00,Wunderground v.1.15,2013-07-28 01:14:00,
2013-07-27 20:19:00,53.5,49.4,29.86,WSW,238,1.0,4.0,86,0.00,,,0.00,Wunderground v.1.15,2013-07-28 01:19:00,
2013-07-27 20:24:00,53.5,49.1,29.86,WSW,256,1.0,4.0,85,0.00,,,0.00,Wunderground v.1.15,2013-07-28 01:24:00,
2013-07-27 20:34:00,53.4,49.0,29.86,SSW,197,1.0,2.0,85,0.00,,,0.00,Wunderground v.1.15,2013-07-28 01:34:00,
2013-07-27 20:39:00,53.5,49.4,29.86,West,271,1.0,1.0,86,0.00,,,0.00,Wunderground v.1.15,2013-07-28 01:39:00,
2013-07-27 20:45:00,53.5,49.4,29.86,West,259,1.0,1.0,86,0.00,,,0.00,Wunderground v.1.15,2013-07-28 01:45:00,
2013-07-27 20:50:00,53.5,49.4,29.86,West,260,1.0,1.0,86,0.00,,,0.00,Wunderground v.1.15,2013-07-28 01:50:00,
2013-07-27 20:55:00,53.6,49.2,29.86,SW,234,2.0,3.0,85,0.00,,,0.00,Wunderground v.1.15,2013-07-28 01:55:00,
2013-07-27 21:04:00,53.5,49.1,29.86,SW,232,1.0,3.0,85,0.00,,,0.00,Wunderground v.1.15,2013-07-28 02:04:00,
2013-07-27 21:09:00,53.6,49.5,29.86,SW,235,1.0,2.0,86,0.00,,,0.00,Wunderground v.1.15,2013-07-28 02:09:00,
2013-07-27 21:14:00,53.6,49.5,29.86,SW,233,1.0,3.0,86,0.00,,,0.00,Wunderground v.1.15,2013-07-28 02:14:00,
2013-07-27 21:19:00,53.5,49.4,29.86,West,276,1.0,1.0,86,0.00,,,0.00,Wunderground v.1.15,2013-07-28 02:19:00,
2013-07-27 21:24:00,53.5,49.4,29.86,SW,226,1.0,1.0,86,0.00,,,0.00,Wunderground v.1.15,2013-07-28 02:24:00,
2013-07-27 21:29:00,53.5,49.4,29.86,SW,221,1.0,1.0,86,0.00,,,0.00,Wunderground v.1.15,2013-07-28 02:29:00,
2013-07-27 21:34:00,53.6,49.5,29.86,SW,226,2.0,2.0,86,0.00,,,0.00,Wunderground v.1.15,2013-07-28 02:34:00,
2013-07-27 21:44:00,53.6,49.5,29.86,WSW,248,1.0,2.0,86,0.00,,,0.00,Wunderground v.1.15,2013-07-28 02:44:00,
2013-07-27 21:49:00,53.6,49.5,29.86,SSW,207,2.0,2.0,86,0.00,,,0.00,Wunderground v.1.15,2013-07-28 02:49:00,
2013-07-27 21:54:00,53.6,49.5,29.86,WSW,240,1.0,2.0,86,0.00,,,0.00,Wunderground v.1.15,2013-07-28 02:54:00,
2013-07-27 22:00:00,53.6,49.5,29.86,WNW,288,2.0,2.0,86,0.00,,,0.00,Wunderground v.1.15,2013-07-28 03:00:00,
2013-07-27 22:09:00,53.5,49.4,29.86,SW,230,0.0,1.0,86,0.00,,,0.00,Wunderground v.1.15,2013-07-28 03:09:00,
2013-07-27 22:19:00,53.4,49.0,29.86,West,269,1.0,1.0,85,0.00,,,0.00,Wunderground v.1.15,2013-07-28 03:19:00,
2013-07-27 22:24:00,53.5,49.1,29.86,SW,221,1.0,1.0,85,0.00,,,0.00,Wunderground v.1.15,2013-07-28 03:24:00,
2013-07-27 22:29:00,53.6,49.2,29.86,SW,225,2.0,2.0,85,0.00,,,0.00,Wunderground v.1.15,2013-07-28 03:29:00,
2013-07-27 22:34:00,53.6,48.9,29.86,WSW,248,1.0,2.0,84,0.00,,,0.00,Wunderground v.1.15,2013-07-28 03:34:00,
2013-07-27 22:39:00,53.7,49.3,29.86,SSW,193,1.0,1.0,85,0.00,,,0.00,Wunderground v.1.15,2013-07-28 03:39:00,
2013-07-27 22:44:00,53.7,49.0,29.86,SSW,197,2.0,2.0,84,0.00,,,0.00,Wunderground v.1.15,2013-07-28 03:44:00,
2013-07-27 22:49:00,53.7,49.0,29.86,WSW,253,2.0,2.0,84,0.00,,,0.00,Wunderground v.1.15,2013-07-28 03:49:00,
2013-07-27 22:54:00,53.8,49.1,29.85,SSW,212,3.0,4.0,84,0.00,,,0.00,Wunderground v.1.15,2013-07-28 03:54:00,
2013-07-27 23:00:00,53.7,49.3,29.85,West,259,3.0,3.0,85,0.00,,,0.00,Wunderground v.1.15,2013-07-28 04:00:00,
2013-07-27 23:04:00,53.4,49.3,29.85,SW,225,3.0,3.0,86,0.00,,,0.00,Wunderground v.1.15,2013-07-28 04:04:00,
2013-07-27 23:09:00,53.3,49.2,29.85,SSW,193,2.0,3.0,86,0.00,,,0.00,Wunderground v.1.15,2013-07-28 04:09:00,
2013-07-27 23:14:00,53.2,49.4,29.85,SW,222,3.0,3.0,87,0.00,,,0.00,Wunderground v.1.15,2013-07-28 04:14:00,
2013-07-27 23:24:00,53.2,49.4,29.85,WSW,250,3.0,3.0,87,0.00,,,0.00,Wunderground v.1.15,2013-07-28 04:24:00,
2013-07-27 23:29:00,53.2,49.4,29.85,SW,217,3.0,3.0,87,0.00,,,0.00,Wunderground v.1.15,2013-07-28 04:29:00,
2013-07-27 23:34:00,53.2,49.4,29.85,SSW,213,3.0,3.0,87,0.00,,,0.00,Wunderground v.1.15,2013-07-28 04:34:00,
2013-07-27 23:39:00,53.3,49.5,29.85,SSW,201,3.0,3.0,87,0.00,,,0.00,Wunderground v.1.15,2013-07-28 04:39:00,
2013-07-27 23:44:00,53.3,49.5,29.85,South,175,3.0,5.0,87,0.00,,,0.00,Wunderground v.1.15,2013-07-28 04:44:00,
2013-07-27 23:49:00,53.2,49.4,29.85,West,263,2.0,2.0,87,0.00,,,0.00,Wunderground v.1.15,2013-07-28 04:49:00,
2013-07-27 23:54:00,53.2,49.4,29.85,WSW,255,2.0,2.0,87,0.00,,,0.00,Wunderground v.1.15,2013-07-28 04:54:00,
2013-07-27 23:59:00,53.1,49.3,29.85,West,275,2.0,2.0,87,0.00,,,0.00,Wunderground v.1.15,2013-07-28 04:59:00,